Year,Month,Day,Hour,Minute,Value (Times are PST for temperature in C)
2009,06,11,00,00,13.90
2009,06,11,00,01,13.90
2009,06,11,00,02,13.80
2009,06,11,00,03,13.80
2009,06,11,00,04,13.80
2009,06,11,00,05,13.80
2009,06,11,00,06,13.80
2009,06,11,00,07,13.80
2009,06,11,00,08,13.70
2009,06,11,00,09,13.70
2009,06,11,00,10,13.70
2009,06,11,00,11,13.70
2009,06,11,00,12,13.70
2009,06,11,00,13,13.70
2009,06,11,00,14,13.70
2009,06,11,00,15,13.70
2009,06,11,00,16,13.60
2009,06,11,00,17,13.60
2009,06,11,00,18,13.60
2009,06,11,00,19,13.60
2009,06,11,00,20,13.50
2009,06,11,00,21,13.50
2009,06,11,00,22,13.50
2009,06,11,00,23,13.50
2009,06,11,00,24,13.40
2009,06,11,00,25,13.40
2009,06,11,00,26,13.40
2009,06,11,00,27,13.40
2009,06,11,00,28,13.30
2009,06,11,00,29,13.30
2009,06,11,00,30,13.30
2009,06,11,00,31,13.30
2009,06,11,00,32,13.30
2009,06,11,00,33,13.30
2009,06,11,00,34,13.30
2009,06,11,00,35,13.30
2009,06,11,00,36,13.30
2009,06,11,00,37,13.30
2009,06,11,00,38,13.30
2009,06,11,00,39,13.20
2009,06,11,00,40,13.20
2009,06,11,00,41,13.20
2009,06,11,00,42,13.20
2009,06,11,00,43,13.20
2009,06,11,00,44,13.10
2009,06,11,00,45,13.10
2009,06,11,00,46,13.10
2009,06,11,00,47,13.10
2009,06,11,00,48,13.10
2009,06,11,00,49,13.00
2009,06,11,00,50,13.00
2009,06,11,00,51,13.00
2009,06,11,00,52,13.00
2009,06,11,00,53,13.00
2009,06,11,00,54,12.90
2009,06,11,00,55,12.90
2009,06,11,00,56,12.90
2009,06,11,00,57,12.90
2009,06,11,00,58,12.80
2009,06,11,00,59,12.80
2009,06,11,01,00,12.80
2009,06,11,01,01,12.80
2009,06,11,01,02,12.80
2009,06,11,01,03,12.80
2009,06,11,01,04,12.80
2009,06,11,01,05,12.70
2009,06,11,01,06,12.70
2009,06,11,01,07,12.70
2009,06,11,01,08,12.70
2009,06,11,01,09,12.70
2009,06,11,01,10,12.70
2009,06,11,01,11,12.70
2009,06,11,01,12,12.70
2009,06,11,01,13,12.60
2009,06,11,01,14,12.60
2009,06,11,01,15,12.60
2009,06,11,01,16,12.60
2009,06,11,01,17,12.60
2009,06,11,01,18,12.60
2009,06,11,01,19,12.60
2009,06,11,01,20,12.60
2009,06,11,01,21,12.60
2009,06,11,01,22,12.60
2009,06,11,01,23,12.60
2009,06,11,01,24,12.60
2009,06,11,01,25,12.60
2009,06,11,01,26,12.60
2009,06,11,01,27,12.50
2009,06,11,01,28,12.50
2009,06,11,01,29,12.50
2009,06,11,01,30,12.50
2009,06,11,01,31,12.50
2009,06,11,01,32,12.40
2009,06,11,01,33,12.40
2009,06,11,01,34,12.40
2009,06,11,01,35,12.30
2009,06,11,01,36,12.30
2009,06,11,01,37,12.30
2009,06,11,01,38,12.30
2009,06,11,01,39,12.30
2009,06,11,01,40,12.30
2009,06,11,01,41,12.20
2009,06,11,01,42,12.20
2009,06,11,01,43,12.20
2009,06,11,01,44,12.10
2009,06,11,01,45,12.10
2009,06,11,01,46,12.10
2009,06,11,01,47,12.10
2009,06,11,01,48,12.00
2009,06,11,01,49,12.00
2009,06,11,01,50,12.00
2009,06,11,01,51,12.00
2009,06,11,01,52,12.00
2009,06,11,01,53,12.00
2009,06,11,01,54,11.90
2009,06,11,01,55,11.90
2009,06,11,01,56,11.90
2009,06,11,01,57,11.90
2009,06,11,01,58,11.90
2009,06,11,01,59,11.80
2009,06,11,02,00,11.80
2009,06,11,02,01,11.80
2009,06,11,02,02,11.80
2009,06,11,02,03,11.80
2009,06,11,02,04,11.80
2009,06,11,02,05,11.80
2009,06,11,02,06,11.80
2009,06,11,02,07,11.80
2009,06,11,02,08,11.80
2009,06,11,02,09,11.80
2009,06,11,02,10,11.70
2009,06,11,02,11,11.70
2009,06,11,02,12,11.70
2009,06,11,02,13,11.70
2009,06,11,02,14,11.70
2009,06,11,02,15,11.60
2009,06,11,02,16,11.60
2009,06,11,02,17,11.60
2009,06,11,02,18,11.60
2009,06,11,02,19,11.60
2009,06,11,02,20,11.60
2009,06,11,02,21,11.60
2009,06,11,02,22,11.60
2009,06,11,02,23,11.60
2009,06,11,02,24,11.60
2009,06,11,02,25,11.60
2009,06,11,02,26,11.60
2009,06,11,02,27,11.60
2009,06,11,02,28,11.60
2009,06,11,02,29,11.60
2009,06,11,02,30,11.50
2009,06,11,02,31,11.40
2009,06,11,02,32,11.40
2009,06,11,02,33,11.40
2009,06,11,02,34,11.40
2009,06,11,02,35,11.40
2009,06,11,02,36,11.40
2009,06,11,02,37,11.40
2009,06,11,02,38,11.40
2009,06,11,02,39,11.40
2009,06,11,02,40,11.40
2009,06,11,02,41,11.40
2009,06,11,02,42,11.40
2009,06,11,02,43,11.40
2009,06,11,02,44,11.40
2009,06,11,02,45,11.40
2009,06,11,02,46,11.40
2009,06,11,02,47,11.40
2009,06,11,02,48,11.40
2009,06,11,02,49,11.40
2009,06,11,02,50,11.60
2009,06,11,02,51,11.60
2009,06,11,02,52,11.60
2009,06,11,02,53,11.60
2009,06,11,02,54,11.60
2009,06,11,02,55,11.60
2009,06,11,02,56,11.60
2009,06,11,02,57,11.60
2009,06,11,02,58,11.60
2009,06,11,02,59,11.60
2009,06,11,03,00,11.60
2009,06,11,03,01,11.60
2009,06,11,03,02,11.60
2009,06,11,03,03,11.70
2009,06,11,03,04,11.70
2009,06,11,03,05,11.70
2009,06,11,03,06,11.70
2009,06,11,03,07,11.80
2009,06,11,03,08,11.80
2009,06,11,03,09,11.80
2009,06,11,03,10,11.80
2009,06,11,03,11,11.90
2009,06,11,03,12,11.90
2009,06,11,03,13,12.00
2009,06,11,03,14,12.00
2009,06,11,03,15,12.00
2009,06,11,03,16,12.10
2009,06,11,03,17,12.10
2009,06,11,03,18,12.10
2009,06,11,03,19,12.10
2009,06,11,03,20,12.10
2009,06,11,03,21,12.10
2009,06,11,03,22,12.20
2009,06,11,03,23,12.20
2009,06,11,03,24,12.20
2009,06,11,03,25,12.20
2009,06,11,03,26,12.20
2009,06,11,03,27,12.10
2009,06,11,03,28,12.10
2009,06,11,03,29,12.10
2009,06,11,03,30,12.10
2009,06,11,03,31,12.10
2009,06,11,03,32,12.10
2009,06,11,03,33,12.10
2009,06,11,03,34,12.10
2009,06,11,03,35,12.10
2009,06,11,03,36,12.10
2009,06,11,03,37,12.10
2009,06,11,03,38,12.10
2009,06,11,03,39,12.10
2009,06,11,03,40,12.10
2009,06,11,03,41,12.10
2009,06,11,03,42,12.10
2009,06,11,03,43,12.10
2009,06,11,03,44,12.10
2009,06,11,03,45,12.10
2009,06,11,03,46,12.10
2009,06,11,03,47,12.10
2009,06,11,03,48,12.10
2009,06,11,03,49,12.10
2009,06,11,03,50,12.00
2009,06,11,03,51,12.00
2009,06,11,03,52,12.00
2009,06,11,03,53,12.00
2009,06,11,03,54,12.00
2009,06,11,03,55,12.00
2009,06,11,03,56,11.90
2009,06,11,03,57,11.90
2009,06,11,03,58,11.90
2009,06,11,03,59,11.90
2009,06,11,04,00,11.90
2009,06,11,04,01,11.80
2009,06,11,04,02,11.80
2009,06,11,04,03,11.80
2009,06,11,04,04,11.80
2009,06,11,04,05,11.80
2009,06,11,04,06,11.80
2009,06,11,04,07,11.80
2009,06,11,04,08,11.80
2009,06,11,04,09,11.80
2009,06,11,04,10,11.70
2009,06,11,04,11,11.70
2009,06,11,04,12,11.70
2009,06,11,04,13,11.70
2009,06,11,04,14,11.70
2009,06,11,04,15,11.60
2009,06,11,04,16,11.60
2009,06,11,04,17,11.60
2009,06,11,04,18,11.60
2009,06,11,04,19,11.60
2009,06,11,04,20,11.60
2009,06,11,04,21,11.60
2009,06,11,04,22,11.60
2009,06,11,04,23,11.40
2009,06,11,04,24,11.40
2009,06,11,04,25,11.40
2009,06,11,04,26,11.40
2009,06,11,04,27,11.40
2009,06,11,04,28,11.40
2009,06,11,04,29,11.40
2009,06,11,04,30,11.40
2009,06,11,04,31,11.40
2009,06,11,04,32,11.40
2009,06,11,04,33,11.40
2009,06,11,04,34,11.30
2009,06,11,04,35,11.30
2009,06,11,04,36,11.30
2009,06,11,04,37,11.30
2009,06,11,04,38,11.30
2009,06,11,04,39,11.20
2009,06,11,04,40,11.20
2009,06,11,04,41,11.20
2009,06,11,04,42,11.20
2009,06,11,04,43,11.10
2009,06,11,04,44,11.10
2009,06,11,04,45,11.10
2009,06,11,04,46,11.10
2009,06,11,04,47,11.10
2009,06,11,04,48,11.10
2009,06,11,04,49,11.10
2009,06,11,04,50,11.10
2009,06,11,04,51,10.90
2009,06,11,04,52,10.90
2009,06,11,04,53,10.90
2009,06,11,04,54,10.90
2009,06,11,04,55,10.90
2009,06,11,04,56,10.90
2009,06,11,04,57,10.90
2009,06,11,04,58,10.80
2009,06,11,04,59,10.80
2009,06,11,05,00,10.80
2009,06,11,05,01,10.80
2009,06,11,05,02,10.70
2009,06,11,05,03,10.70
2009,06,11,05,04,10.70
2009,06,11,05,05,10.70
2009,06,11,05,06,10.70
2009,06,11,05,07,10.70
2009,06,11,05,08,10.70
2009,06,11,05,09,10.70
2009,06,11,05,10,10.70
2009,06,11,05,11,10.70
2009,06,11,05,12,10.70
2009,06,11,05,13,10.70
2009,06,11,05,14,10.70
2009,06,11,05,15,10.70
2009,06,11,05,16,10.70
2009,06,11,05,17,10.70
2009,06,11,05,18,10.70
2009,06,11,05,19,10.70
2009,06,11,05,20,10.70
2009,06,11,05,21,10.70
2009,06,11,05,22,10.70
2009,06,11,05,23,10.70
2009,06,11,05,24,10.70
2009,06,11,05,25,10.80
2009,06,11,05,26,10.80
2009,06,11,05,27,10.80
2009,06,11,05,28,10.80
2009,06,11,05,29,10.80
2009,06,11,05,30,10.80
2009,06,11,05,31,10.80
2009,06,11,05,32,10.80
2009,06,11,05,33,10.80
2009,06,11,05,34,10.80
2009,06,11,05,35,10.80
2009,06,11,05,36,10.90
2009,06,11,05,37,10.90
2009,06,11,05,38,10.90
2009,06,11,05,39,10.90
2009,06,11,05,40,10.90
2009,06,11,05,41,10.90
2009,06,11,05,42,10.90
2009,06,11,05,43,10.90
2009,06,11,05,44,10.90
2009,06,11,05,45,10.90
2009,06,11,05,46,10.90
2009,06,11,05,47,10.90
2009,06,11,05,48,10.90
2009,06,11,05,49,10.90
2009,06,11,05,50,10.90
2009,06,11,05,51,10.90
2009,06,11,05,52,10.90
2009,06,11,05,53,10.90
2009,06,11,05,54,10.90
2009,06,11,05,55,10.90
2009,06,11,05,56,10.90
2009,06,11,05,57,10.90
2009,06,11,05,58,10.90
2009,06,11,05,59,10.90
2009,06,11,06,00,10.90
2009,06,11,06,01,10.90
2009,06,11,06,02,10.90
2009,06,11,06,03,10.90
2009,06,11,06,04,10.90
2009,06,11,06,05,10.90
2009,06,11,06,06,11.00
2009,06,11,06,07,11.10
2009,06,11,06,08,11.10
2009,06,11,06,09,11.10
2009,06,11,06,10,11.10
2009,06,11,06,11,11.10
2009,06,11,06,12,11.10
2009,06,11,06,13,11.10
2009,06,11,06,14,11.10
2009,06,11,06,15,11.10
2009,06,11,06,16,11.10
2009,06,11,06,17,11.10
2009,06,11,06,18,11.10
2009,06,11,06,19,11.10
2009,06,11,06,20,11.10
2009,06,11,06,21,11.10
2009,06,11,06,22,11.10
2009,06,11,06,23,11.10
2009,06,11,06,24,10.90
2009,06,11,06,25,10.90
2009,06,11,06,26,10.90
2009,06,11,06,27,10.90
2009,06,11,06,28,10.90
2009,06,11,06,29,10.90
2009,06,11,06,30,11.00
2009,06,11,06,31,11.10
2009,06,11,06,32,11.10
2009,06,11,06,33,11.10
2009,06,11,06,34,11.10
2009,06,11,06,35,11.10
2009,06,11,06,36,11.20
2009,06,11,06,37,11.20
2009,06,11,06,38,11.30
2009,06,11,06,39,11.30
2009,06,11,06,40,11.40
2009,06,11,06,41,11.40
2009,06,11,06,42,11.40
2009,06,11,06,43,11.50
2009,06,11,06,44,11.60
2009,06,11,06,45,11.60
2009,06,11,06,46,11.70
2009,06,11,06,47,11.80
2009,06,11,06,48,11.80
2009,06,11,06,49,12.00
2009,06,11,06,50,12.00
2009,06,11,06,51,12.10
2009,06,11,06,52,12.20
2009,06,11,06,53,12.30
2009,06,11,06,54,12.40
2009,06,11,06,55,12.50
2009,06,11,06,56,12.60
2009,06,11,06,57,12.60
2009,06,11,06,58,12.70
2009,06,11,06,59,12.80
2009,06,11,07,00,12.80
2009,06,11,07,01,12.80
2009,06,11,07,02,12.80
2009,06,11,07,03,12.90
2009,06,11,07,04,12.90
2009,06,11,07,05,13.00
2009,06,11,07,06,13.00
2009,06,11,07,07,13.10
2009,06,11,07,08,13.10
2009,06,11,07,09,13.20
2009,06,11,07,10,13.20
2009,06,11,07,11,13.30
2009,06,11,07,12,13.30
2009,06,11,07,13,13.40
2009,06,11,07,14,13.40
2009,06,11,07,15,13.50
2009,06,11,07,16,13.50
2009,06,11,07,17,13.60
2009,06,11,07,18,13.60
2009,06,11,07,19,13.70
2009,06,11,07,20,13.70
2009,06,11,07,21,13.70
2009,06,11,07,22,13.70
2009,06,11,07,23,13.80
2009,06,11,07,24,13.80
2009,06,11,07,25,13.90
2009,06,11,07,26,13.90
2009,06,11,07,27,14.00
2009,06,11,07,28,14.00
2009,06,11,07,29,14.00
2009,06,11,07,30,14.10
2009,06,11,07,31,14.10
2009,06,11,07,32,14.10
2009,06,11,07,33,14.20
2009,06,11,07,34,14.20
2009,06,11,07,35,14.20
2009,06,11,07,36,14.20
2009,06,11,07,37,14.30
2009,06,11,07,38,14.30
2009,06,11,07,39,14.30
2009,06,11,07,40,14.40
2009,06,11,07,41,14.50
2009,06,11,07,42,14.50
2009,06,11,07,43,14.60
2009,06,11,07,44,14.60
2009,06,11,07,45,14.70
2009,06,11,07,46,14.80
2009,06,11,07,47,14.80
2009,06,11,07,48,14.90
2009,06,11,07,49,15.00
2009,06,11,07,50,15.00
2009,06,11,07,51,15.00
2009,06,11,07,52,15.00
2009,06,11,07,53,15.00
2009,06,11,07,54,15.00
2009,06,11,07,55,15.00
2009,06,11,07,56,15.00
2009,06,11,07,57,15.00
2009,06,11,07,58,15.00
2009,06,11,07,59,15.10
2009,06,11,08,00,15.10
2009,06,11,08,01,15.10
2009,06,11,08,02,15.10
2009,06,11,08,03,15.10
2009,06,11,08,04,15.10
2009,06,11,08,05,15.20
2009,06,11,08,06,15.30
2009,06,11,08,07,15.30
2009,06,11,08,08,15.40
2009,06,11,08,09,15.50
2009,06,11,08,10,15.60
2009,06,11,08,11,15.80
2009,06,11,08,12,15.80
2009,06,11,08,13,15.90
2009,06,11,08,14,16.00
2009,06,11,08,15,16.10
2009,06,11,08,16,16.10
2009,06,11,08,17,16.20
2009,06,11,08,18,16.20
2009,06,11,08,19,16.20
2009,06,11,08,20,16.10
2009,06,11,08,21,16.10
2009,06,11,08,22,16.10
2009,06,11,08,23,16.20
2009,06,11,08,24,16.20
2009,06,11,08,25,16.20
2009,06,11,08,26,16.20
2009,06,11,08,27,16.20
2009,06,11,08,28,16.20
2009,06,11,08,29,16.20
2009,06,11,08,30,16.20
2009,06,11,08,31,16.30
2009,06,11,08,32,16.20
2009,06,11,08,33,16.20
2009,06,11,08,34,16.30
2009,06,11,08,35,16.40
2009,06,11,08,36,16.40
2009,06,11,08,37,16.40
2009,06,11,08,38,16.30
2009,06,11,08,39,16.20
2009,06,11,08,40,16.10
2009,06,11,08,41,16.10
2009,06,11,08,42,16.10
2009,06,11,08,43,16.10
2009,06,11,08,44,16.10
2009,06,11,08,45,16.10
2009,06,11,08,46,16.10
2009,06,11,08,47,16.10
2009,06,11,08,48,16.20
2009,06,11,08,49,16.20
2009,06,11,08,50,16.30
2009,06,11,08,51,16.40
2009,06,11,08,52,16.40
2009,06,11,08,53,16.50
2009,06,11,08,54,16.60
2009,06,11,08,55,16.70
2009,06,11,08,56,16.70
2009,06,11,08,57,16.70
2009,06,11,08,58,16.70
2009,06,11,08,59,16.60
2009,06,11,09,00,16.60
2009,06,11,09,01,16.60
2009,06,11,09,02,16.70
2009,06,11,09,03,16.70
2009,06,11,09,04,16.70
2009,06,11,09,05,16.70
2009,06,11,09,06,16.70
2009,06,11,09,07,16.70
2009,06,11,09,08,16.70
2009,06,11,09,09,16.80
2009,06,11,09,10,16.90
2009,06,11,09,11,16.90
2009,06,11,09,12,16.90
2009,06,11,09,13,16.90
2009,06,11,09,14,17.00
2009,06,11,09,15,17.00
2009,06,11,09,16,17.00
2009,06,11,09,17,17.10
2009,06,11,09,18,17.10
2009,06,11,09,19,17.10
2009,06,11,09,20,17.00
2009,06,11,09,21,17.00
2009,06,11,09,22,16.90
2009,06,11,09,23,16.90
2009,06,11,09,24,17.00
2009,06,11,09,25,17.00
2009,06,11,09,26,17.10
2009,06,11,09,27,17.10
2009,06,11,09,28,17.10
2009,06,11,09,29,17.10
2009,06,11,09,30,17.00
2009,06,11,09,31,17.00
2009,06,11,09,32,17.00
2009,06,11,09,33,17.00
2009,06,11,09,34,17.00
2009,06,11,09,35,17.00
2009,06,11,09,36,17.00
2009,06,11,09,37,17.10
2009,06,11,09,38,17.20
2009,06,11,09,39,17.20
2009,06,11,09,40,17.30
2009,06,11,09,41,17.30
2009,06,11,09,42,17.30
2009,06,11,09,43,17.40
2009,06,11,09,44,17.50
2009,06,11,09,45,17.70
2009,06,11,09,46,17.70
2009,06,11,09,47,17.80
2009,06,11,09,48,17.80
2009,06,11,09,49,17.70
2009,06,11,09,50,17.60
2009,06,11,09,51,17.60
2009,06,11,09,52,17.70
2009,06,11,09,53,17.70
2009,06,11,09,54,17.80
2009,06,11,09,55,17.90
2009,06,11,09,56,18.00
2009,06,11,09,57,18.10
2009,06,11,09,58,18.10
2009,06,11,09,59,18.20
2009,06,11,10,00,18.10
2009,06,11,10,01,18.10
2009,06,11,10,02,18.20
2009,06,11,10,03,18.30
2009,06,11,10,04,18.50
2009,06,11,10,05,18.60
2009,06,11,10,06,18.70
2009,06,11,10,07,18.80
2009,06,11,10,08,18.90
2009,06,11,10,09,19.10
2009,06,11,10,10,19.10
2009,06,11,10,11,19.30
2009,06,11,10,12,19.40
2009,06,11,10,13,19.50
2009,06,11,10,14,19.50
2009,06,11,10,15,19.60
2009,06,11,10,16,19.60
2009,06,11,10,17,19.70
2009,06,11,10,18,19.80
2009,06,11,10,19,19.70
2009,06,11,10,20,19.50
2009,06,11,10,21,19.30
2009,06,11,10,22,19.30
2009,06,11,10,23,19.40
2009,06,11,10,24,19.40
2009,06,11,10,25,19.50
2009,06,11,10,26,19.50
2009,06,11,10,27,19.60
2009,06,11,10,28,19.60
2009,06,11,10,29,19.70
2009,06,11,10,30,19.70
2009,06,11,10,31,19.60
2009,06,11,10,32,19.60
2009,06,11,10,33,19.70
2009,06,11,10,34,19.80
2009,06,11,10,35,19.90
2009,06,11,10,36,19.90
2009,06,11,10,37,20.00
2009,06,11,10,38,20.10
2009,06,11,10,39,20.00
2009,06,11,10,40,19.90
2009,06,11,10,41,19.90
2009,06,11,10,42,19.90
2009,06,11,10,43,19.90
2009,06,11,10,44,19.90
2009,06,11,10,45,19.90
2009,06,11,10,46,19.80
2009,06,11,10,47,19.70
2009,06,11,10,48,19.50
2009,06,11,10,49,19.40
2009,06,11,10,50,19.30
2009,06,11,10,51,19.20
2009,06,11,10,52,19.20
2009,06,11,10,53,19.10
2009,06,11,10,54,19.10
2009,06,11,10,55,19.20
2009,06,11,10,56,19.20
2009,06,11,10,57,19.10
2009,06,11,10,58,18.90
2009,06,11,10,59,18.80
2009,06,11,11,00,18.80
2009,06,11,11,01,18.90
2009,06,11,11,02,18.90
2009,06,11,11,03,19.00
2009,06,11,11,04,19.10
2009,06,11,11,05,19.20
2009,06,11,11,06,19.40
2009,06,11,11,07,19.60
2009,06,11,11,08,19.70
2009,06,11,11,09,19.80
2009,06,11,11,10,20.00
2009,06,11,11,11,20.20
2009,06,11,11,12,20.20
2009,06,11,11,13,20.30
2009,06,11,11,14,20.40
2009,06,11,11,15,20.40
2009,06,11,11,16,20.20
2009,06,11,11,17,19.90
2009,06,11,11,18,19.60
2009,06,11,11,19,19.60
2009,06,11,11,20,19.50
2009,06,11,11,21,19.40
2009,06,11,11,22,19.40
2009,06,11,11,23,19.40
2009,06,11,11,24,19.30
2009,06,11,11,25,19.20
2009,06,11,11,26,19.10
2009,06,11,11,27,18.90
2009,06,11,11,28,18.90
2009,06,11,11,29,18.90
2009,06,11,11,30,18.90
2009,06,11,11,31,19.00
2009,06,11,11,32,19.10
2009,06,11,11,33,19.20
2009,06,11,11,34,19.30
2009,06,11,11,35,19.40
2009,06,11,11,36,19.50
2009,06,11,11,37,19.50
2009,06,11,11,38,19.60
2009,06,11,11,39,19.60
2009,06,11,11,40,19.70
2009,06,11,11,41,19.80
2009,06,11,11,42,19.80
2009,06,11,11,43,19.70
2009,06,11,11,44,19.60
2009,06,11,11,45,19.60
2009,06,11,11,46,19.50
2009,06,11,11,47,19.50
2009,06,11,11,48,19.40
2009,06,11,11,49,19.30
2009,06,11,11,50,19.20
2009,06,11,11,51,19.20
2009,06,11,11,52,19.30
2009,06,11,11,53,19.30
2009,06,11,11,54,19.40
2009,06,11,11,55,19.50
2009,06,11,11,56,19.50
2009,06,11,11,57,19.50
2009,06,11,11,58,19.50
2009,06,11,11,59,19.40
2009,06,11,12,00,19.40
2009,06,11,12,01,19.50
2009,06,11,12,02,19.40
2009,06,11,12,03,19.50
2009,06,11,12,04,19.80
2009,06,11,12,05,19.90
2009,06,11,12,06,20.10
2009,06,11,12,07,20.10
2009,06,11,12,08,20.10
2009,06,11,12,09,20.00
2009,06,11,12,10,19.90
2009,06,11,12,11,19.90
2009,06,11,12,12,20.00
2009,06,11,12,13,20.10
2009,06,11,12,14,20.20
2009,06,11,12,15,20.10
2009,06,11,12,16,19.90
2009,06,11,12,17,19.80
2009,06,11,12,18,19.80
2009,06,11,12,19,19.90
2009,06,11,12,20,19.90
2009,06,11,12,21,19.90
2009,06,11,12,22,19.90
2009,06,11,12,23,20.10
2009,06,11,12,24,20.10
2009,06,11,12,25,20.20
2009,06,11,12,26,20.20
2009,06,11,12,27,20.20
2009,06,11,12,28,20.20
2009,06,11,12,29,20.20
2009,06,11,12,30,20.20
2009,06,11,12,31,20.20
2009,06,11,12,32,20.30
2009,06,11,12,33,20.30
2009,06,11,12,34,20.20
2009,06,11,12,35,20.10
2009,06,11,12,36,19.90
2009,06,11,12,37,19.80
2009,06,11,12,38,19.80
2009,06,11,12,39,19.90
2009,06,11,12,40,19.90
2009,06,11,12,41,19.90
2009,06,11,12,42,19.90
2009,06,11,12,43,19.90
2009,06,11,12,44,20.00
2009,06,11,12,45,20.10
2009,06,11,12,46,20.20
2009,06,11,12,47,20.20
2009,06,11,12,48,20.20
2009,06,11,12,49,20.20
2009,06,11,12,50,20.20
2009,06,11,12,51,20.10
2009,06,11,12,52,20.20
2009,06,11,12,53,20.10
2009,06,11,12,54,20.10
2009,06,11,12,55,20.10
2009,06,11,12,56,20.10
2009,06,11,12,57,20.20
2009,06,11,12,58,20.20
2009,06,11,12,59,20.20
2009,06,11,13,00,20.20
2009,06,11,13,01,20.20
2009,06,11,13,02,20.20
2009,06,11,13,03,20.20
2009,06,11,13,04,20.30
2009,06,11,13,05,20.50
2009,06,11,13,06,20.50
2009,06,11,13,07,20.50
2009,06,11,13,08,20.50
2009,06,11,13,09,20.60
2009,06,11,13,10,20.50
2009,06,11,13,11,20.50
2009,06,11,13,12,20.60
2009,06,11,13,13,20.70
2009,06,11,13,14,20.60
2009,06,11,13,15,20.60
2009,06,11,13,16,20.60
2009,06,11,13,17,20.60
2009,06,11,13,18,20.50
2009,06,11,13,19,20.60
2009,06,11,13,20,20.70
2009,06,11,13,21,20.80
2009,06,11,13,22,20.80
2009,06,11,13,23,20.90
2009,06,11,13,24,20.90
2009,06,11,13,25,20.90
2009,06,11,13,26,20.80
2009,06,11,13,27,20.80
2009,06,11,13,28,21.00
2009,06,11,13,29,21.00
2009,06,11,13,30,21.00
2009,06,11,13,31,21.10
2009,06,11,13,32,21.00
2009,06,11,13,33,20.80
2009,06,11,13,34,20.70
2009,06,11,13,35,20.70
2009,06,11,13,36,20.60
2009,06,11,13,37,20.50
2009,06,11,13,38,20.60
2009,06,11,13,39,20.50
2009,06,11,13,40,20.50
2009,06,11,13,41,20.50
2009,06,11,13,42,20.50
2009,06,11,13,43,20.60
2009,06,11,13,44,20.60
2009,06,11,13,45,20.70
2009,06,11,13,46,20.80
2009,06,11,13,47,20.90
2009,06,11,13,48,20.90
2009,06,11,13,49,20.90
2009,06,11,13,50,21.00
2009,06,11,13,51,21.20
2009,06,11,13,52,21.20
2009,06,11,13,53,21.10
2009,06,11,13,54,21.10
2009,06,11,13,55,21.10
2009,06,11,13,56,21.10
2009,06,11,13,57,21.00
2009,06,11,13,58,21.00
2009,06,11,13,59,20.90
2009,06,11,14,00,20.90
2009,06,11,14,01,21.00
2009,06,11,14,02,21.10
2009,06,11,14,03,21.30
2009,06,11,14,04,21.50
2009,06,11,14,05,21.70
2009,06,11,14,06,21.80
2009,06,11,14,07,21.80
2009,06,11,14,08,21.70
2009,06,11,14,09,21.60
2009,06,11,14,10,21.40
2009,06,11,14,11,21.30
2009,06,11,14,12,21.40
2009,06,11,14,13,21.50
2009,06,11,14,14,21.60
2009,06,11,14,15,21.60
2009,06,11,14,16,21.60
2009,06,11,14,17,21.70
2009,06,11,14,18,21.70
2009,06,11,14,19,21.60
2009,06,11,14,20,21.60
2009,06,11,14,21,21.60
2009,06,11,14,22,21.60
2009,06,11,14,23,21.60
2009,06,11,14,24,21.60
2009,06,11,14,25,21.70
2009,06,11,14,26,21.70
2009,06,11,14,27,21.80
2009,06,11,14,28,21.80
2009,06,11,14,29,21.70
2009,06,11,14,30,21.60
2009,06,11,14,31,21.60
2009,06,11,14,32,21.60
2009,06,11,14,33,21.60
2009,06,11,14,34,21.60
2009,06,11,14,35,21.60
2009,06,11,14,36,21.60
2009,06,11,14,37,21.50
2009,06,11,14,38,21.30
2009,06,11,14,39,21.40
2009,06,11,14,40,21.60
2009,06,11,14,41,21.60
2009,06,11,14,42,21.70
2009,06,11,14,43,21.70
2009,06,11,14,44,21.60
2009,06,11,14,45,21.60
2009,06,11,14,46,21.60
2009,06,11,14,47,21.60
2009,06,11,14,48,21.60
2009,06,11,14,49,21.60
2009,06,11,14,50,21.40
2009,06,11,14,51,21.30
2009,06,11,14,52,21.20
2009,06,11,14,53,21.30
2009,06,11,14,54,21.20
2009,06,11,14,55,21.30
2009,06,11,14,56,21.40
2009,06,11,14,57,21.40
2009,06,11,14,58,21.50
2009,06,11,14,59,21.60
2009,06,11,15,00,21.60
2009,06,11,15,01,21.60
2009,06,11,15,02,21.70
2009,06,11,15,03,21.80
2009,06,11,15,04,21.90
2009,06,11,15,05,21.90
2009,06,11,15,06,22.00
2009,06,11,15,07,22.10
2009,06,11,15,08,22.00
2009,06,11,15,09,22.00
2009,06,11,15,10,21.90
2009,06,11,15,11,21.90
2009,06,11,15,12,21.70
2009,06,11,15,13,21.70
2009,06,11,15,14,21.80
2009,06,11,15,15,21.80
2009,06,11,15,16,21.90
2009,06,11,15,17,21.90
2009,06,11,15,18,21.90
2009,06,11,15,19,21.90
2009,06,11,15,20,21.90
2009,06,11,15,21,21.90
2009,06,11,15,22,21.90
2009,06,11,15,23,21.90
2009,06,11,15,24,21.90
2009,06,11,15,25,21.90
2009,06,11,15,26,21.80
2009,06,11,15,27,21.70
2009,06,11,15,28,21.70
2009,06,11,15,29,21.70
2009,06,11,15,30,21.60
2009,06,11,15,31,21.60
2009,06,11,15,32,21.60
2009,06,11,15,33,21.60
2009,06,11,15,34,21.60
2009,06,11,15,35,21.70
2009,06,11,15,36,21.70
2009,06,11,15,37,21.70
2009,06,11,15,38,21.80
2009,06,11,15,39,21.80
2009,06,11,15,40,21.80
2009,06,11,15,41,21.70
2009,06,11,15,42,21.60
2009,06,11,15,43,21.60
2009,06,11,15,44,21.60
2009,06,11,15,45,21.60
2009,06,11,15,46,21.60
2009,06,11,15,47,21.60
2009,06,11,15,48,21.80
2009,06,11,15,49,22.00
2009,06,11,15,50,22.10
2009,06,11,15,51,22.30
2009,06,11,15,52,22.50
2009,06,11,15,53,22.30
2009,06,11,15,54,22.30
2009,06,11,15,55,22.20
2009,06,11,15,56,22.20
2009,06,11,15,57,22.30
2009,06,11,15,58,22.30
2009,06,11,15,59,22.10
2009,06,11,16,00,22.00
2009,06,11,16,01,22.10
2009,06,11,16,02,22.00
2009,06,11,16,03,22.10
2009,06,11,16,04,22.10
2009,06,11,16,05,22.20
2009,06,11,16,06,22.20
2009,06,11,16,07,22.10
2009,06,11,16,08,21.90
2009,06,11,16,09,21.80
2009,06,11,16,10,21.70
2009,06,11,16,11,21.60
2009,06,11,16,12,21.60
2009,06,11,16,13,21.60
2009,06,11,16,14,21.60
2009,06,11,16,15,21.60
2009,06,11,16,16,21.40
2009,06,11,16,17,21.30
2009,06,11,16,18,21.30
2009,06,11,16,19,21.20
2009,06,11,16,20,21.30
2009,06,11,16,21,21.40
2009,06,11,16,22,21.50
2009,06,11,16,23,21.60
2009,06,11,16,24,21.70
2009,06,11,16,25,21.70
2009,06,11,16,26,21.80
2009,06,11,16,27,21.90
2009,06,11,16,28,22.00
2009,06,11,16,29,21.90
2009,06,11,16,30,21.80
2009,06,11,16,31,21.90
2009,06,11,16,32,21.90
2009,06,11,16,33,21.90
2009,06,11,16,34,21.90
2009,06,11,16,35,22.00
2009,06,11,16,36,22.20
2009,06,11,16,37,22.20
2009,06,11,16,38,22.30
2009,06,11,16,39,22.50
2009,06,11,16,40,22.60
2009,06,11,16,41,22.80
2009,06,11,16,42,22.90
2009,06,11,16,43,23.10
2009,06,11,16,44,23.20
2009,06,11,16,45,23.30
2009,06,11,16,46,23.40
2009,06,11,16,47,23.60
2009,06,11,16,48,23.70
2009,06,11,16,49,23.70
2009,06,11,16,50,23.70
2009,06,11,16,51,23.70
2009,06,11,16,52,23.70
2009,06,11,16,53,23.70
2009,06,11,16,54,23.70
2009,06,11,16,55,23.60
2009,06,11,16,56,23.40
2009,06,11,16,57,23.10
2009,06,11,16,58,23.00
2009,06,11,16,59,22.90
2009,06,11,17,00,23.00
2009,06,11,17,01,23.00
2009,06,11,17,02,22.90
2009,06,11,17,03,22.90
2009,06,11,17,04,22.90
2009,06,11,17,05,22.90
2009,06,11,17,06,22.90
2009,06,11,17,07,22.90
2009,06,11,17,08,22.90
2009,06,11,17,09,22.90
2009,06,11,17,10,22.70
2009,06,11,17,11,22.50
2009,06,11,17,12,22.40
2009,06,11,17,13,22.40
2009,06,11,17,14,22.30
2009,06,11,17,15,22.30
2009,06,11,17,16,22.40
2009,06,11,17,17,22.30
2009,06,11,17,18,22.30
2009,06,11,17,19,22.30